Dades meteomassalio
 
Diari Summary for Octubre 16, 2018 Units:  Metric    English   Both
« Previous Day
Next Day »
Diari Semanal Mensual Anual Personalitzat
  Actual: Maxima: Minima: Mijana:
Temperatura: -7.3 °C -17.8 °C -14.4 °C -11.9 °C
Rosada: -10.9 °C -17.8 °C -15.1 °C -13.2 °C
Humitat: 66 % Humidity % 66 % 86 %
Velocitat del vent: 0 km/h 0 km/h 0 km/h 0 km/h
Racha vent: 0 km/h 0 km/h - -
Vent:Calm - - North
Pressio: 34469.5 hPa 0 hPa 34330.7 hPa -
Pluja: 7.62 mm      
Historical Graphs
 
 
Tabular Data for Octubre 16, 2018
Time Temperature Dew Point Pressure Wind Wind Speed Wind Gust Humidity Rainfall Rate (Hourly) solar Conditions
-17.8 °C -17.8 °C 0 hPa Calm     Humidity % 0 mm SolarRadiationWatts/m^2 W/m2 Conditions
00:04 -12.8 °C -13.9 °C 34334 hPa Calm     88 % 0 mm 0.00 W/m2 RA
00:09 -12.8 °C -13.9 °C 34337.4 hPa Calm     88 % 0 mm 0.00 W/m2 CLR
00:14 -12.8 °C -13.8 °C 34337.4 hPa Calm     89 % 0 mm 0.00 W/m2 CLR
00:19 -12.8 °C -13.8 °C 34334 hPa Calm     89 % 0 mm 0.00 W/m2 CLR
00:24 -12.8 °C -13.8 °C 34330.7 hPa Calm     89 % 0 mm 0.00 W/m2 CLR
00:29 -12.8 °C -13.8 °C 34334 hPa Calm     89 % 0 mm 0.00 W/m2 CLR
00:34 -12.8 °C -13.8 °C 34337.4 hPa Calm     89 % 0 mm 0.00 W/m2 CLR
00:39 -12.8 °C -13.8 °C 34337.4 hPa Calm     89 % 0 mm 0.00 W/m2 CLR
00:44 -12.8 °C -13.7 °C 34337.4 hPa Calm     90 % 0 mm 0.00 W/m2 CLR
00:49 -12.8 °C -13.8 °C 34337.4 hPa Calm     89 % 0 mm 0.00 W/m2 CLR
00:54 -12.8 °C -13.7 °C 34340.8 hPa Calm     90 % 0 mm 0.00 W/m2 CLR
00:59 -12.8 °C -13.7 °C 34337.4 hPa Calm     90 % 0 mm 0.00 W/m2 CLR
01:04 -12.8 °C -13.7 °C 34340.8 hPa Calm     90 % 0 mm 0.00 W/m2 CLR
01:09 -12.8 °C -13.7 °C 34344.2 hPa Calm     90 % 0 mm 0.00 W/m2 CLR
01:14 -12.8 °C -13.7 °C 34344.2 hPa Calm     90 % 0 mm 0.00 W/m2 CLR
01:19 -12.8 °C -13.7 °C 34344.2 hPa Calm     90 % 0 mm 0.00 W/m2 CLR
01:24 -12.8 °C -13.7 °C 34344.2 hPa Calm     90 % 0 mm 0.00 W/m2 CLR
01:29 -12.8 °C -13.7 °C 34344.2 hPa Calm     90 % 0 mm 0.00 W/m2 CLR
01:34 -12.8 °C -13.7 °C 34344.2 hPa Calm     90 % 0 mm 0.00 W/m2 CLR
01:39 -12.8 °C -13.7 °C 34347.6 hPa Calm     90 % 0 mm 0.00 W/m2 CLR
01:44 -12.8 °C -13.6 °C 34347.6 hPa Calm     91 % 0 mm 0.00 W/m2 CLR
01:49 -12.8 °C -13.6 °C 34344.2 hPa Calm     91 % 0 mm 0.00 W/m2 CLR
01:54 -12.8 °C -13.6 °C 34347.6 hPa Calm     91 % 0 mm 0.00 W/m2 CLR
01:59 -12.8 °C -13.6 °C 34344.2 hPa Calm     91 % 0 mm 0.00 W/m2 CLR
02:04 -12.8 °C -13.7 °C 34344.2 hPa Calm     90 % 0 mm 0.00 W/m2 CLR
02:09 -12.8 °C -13.6 °C 34347.6 hPa Calm     91 % 0 mm 0.00 W/m2 CLR
02:14 -12.8 °C -13.6 °C 34347.6 hPa Calm     91 % 0 mm 0.00 W/m2 CLR
02:19 -12.8 °C -13.6 °C 34351 hPa Calm     91 % 0 mm 0.00 W/m2 CLR
02:24 -12.8 °C -13.6 °C 34354.4 hPa Calm     91 % 0 mm 0.00 W/m2 CLR
02:29 -12.8 °C -13.6 °C 34351 hPa Calm     91 % 0 mm 0.00 W/m2 CLR
02:34 -13.2 °C -13.9 °C 34357.7 hPa Calm     91 % 0 mm 0.00 W/m2 CLR
02:39 -13.2 °C -13.9 °C 34357.7 hPa Calm     91 % 0 mm 0.00 W/m2 CLR
02:44 -13.2 °C -13.9 °C 34357.7 hPa Calm     91 % 0 mm 0.00 W/m2 CLR
02:49 -13.2 °C -13.9 °C 34354.4 hPa Calm     91 % 0 mm 0.00 W/m2 CLR
02:54 -13.2 °C -13.9 °C 34354.4 hPa Calm     91 % 0 mm 0.00 W/m2 CLR
02:59 -13.2 °C -13.9 °C 34357.7 hPa Calm     91 % 0 mm 0.00 W/m2 CLR
03:04 -13.2 °C -13.8 °C 34357.7 hPa Calm     92 % 0 mm 0.00 W/m2 CLR
03:09 -13.2 °C -13.8 °C 34361.1 hPa Calm     92 % 0 mm 0.00 W/m2 CLR
03:14 -13.2 °C -13.8 °C 34357.7 hPa Calm     92 % 0 mm 0.00 W/m2 CLR
03:19 -13.2 °C -13.9 °C 34357.7 hPa Calm     91 % 0 mm 0.00 W/m2 CLR
03:24 -13.2 °C -13.9 °C 34354.4 hPa Calm     91 % 0 mm 0.00 W/m2 CLR
03:29 -13.4 °C -14.1 °C 34354.4 hPa Calm     92 % 0 mm 0.00 W/m2 CLR
03:34 -13.4 °C -14.1 °C 34354.4 hPa Calm     92 % 0 mm 0.00 W/m2 CLR
03:39 -13.4 °C -14.1 °C 34354.4 hPa Calm     92 % 0 mm 0.00 W/m2 CLR
03:44 -13.4 °C -14.1 °C 34354.4 hPa Calm     92 % 0 mm 0.00 W/m2 CLR
03:49 -13.4 °C -14.1 °C 34354.4 hPa Calm     92 % 0 mm 0.00 W/m2 CLR
03:54 -13.4 °C -14.1 °C 34357.7 hPa Calm     92 % 0 mm 0.00 W/m2 CLR
03:59 -13.4 °C -14.1 °C 34354.4 hPa Calm     92 % 0 mm 0.00 W/m2 CLR
04:04 -13.4 °C -14.1 °C 34354.4 hPa Calm     92 % 0 mm 0.00 W/m2 CLR
04:09 -13.4 °C -14.1 °C 34351 hPa Calm     92 % 0 mm 0.00 W/m2 CLR
04:14 -13.4 °C -14.1 °C 34354.4 hPa Calm     92 % 0 mm 0.00 W/m2 CLR
04:19 -13.4 °C -14.1 °C 34351 hPa Calm     92 % 0 mm 0.00 W/m2 CLR
04:24 -13.4 °C -14.1 °C 34351 hPa Calm     92 % 0 mm 0.00 W/m2 CLR
04:29 -13.4 °C -14.1 °C 34351 hPa Calm     92 % 0 mm 0.00 W/m2 CLR
04:34 -13.4 °C -14.1 °C 34351 hPa Calm     92 % 0 mm 0.00 W/m2 CLR
04:39 -13.4 °C -14.1 °C 34357.7 hPa Calm     92 % 0 mm 0.00 W/m2 CLR
04:44 -13.4 °C -14.1 °C 34354.4 hPa Calm     92 % 0 mm 0.00 W/m2 CLR
04:49 -13.4 °C -14.1 °C 34354.4 hPa Calm     92 % 0 mm 0.00 W/m2 CLR
04:54 -13.4 °C -14.1 °C 34351 hPa Calm     92 % 0 mm 0.00 W/m2 CLR
04:59 -13.4 °C -14.1 °C 34351 hPa Calm     92 % 0 mm 0.00 W/m2 CLR
05:04 -13.4 °C -14.1 °C 34351 hPa Calm     92 % 0 mm 0.00 W/m2 CLR
05:09 -13.4 °C -14.1 °C 34354.4 hPa Calm     92 % 0 mm 0.00 W/m2 CLR
05:14 -13.8 °C -14.4 °C 34357.7 hPa Calm     92 % 0 mm 0.00 W/m2 CLR
05:19 -13.8 °C -14.4 °C 34361.1 hPa Calm     92 % 0 mm 0.00 W/m2 CLR
05:24 -13.8 °C -14.4 °C 34361.1 hPa Calm     92 % 0 mm 0.00 W/m2 CLR
05:29 -13.8 °C -14.4 °C 34364.5 hPa Calm     92 % 0 mm 0.00 W/m2 CLR
05:34 -13.8 °C -14.4 °C 34364.5 hPa Calm     92 % 0 mm 0.00 W/m2 CLR
05:39 -13.8 °C -14.4 °C 34367.9 hPa Calm     92 % 0 mm 0.00 W/m2 CLR
05:44 -13.8 °C -14.3 °C 34371.3 hPa Calm     93 % 0 mm 0.00 W/m2 CLR
05:49 -13.8 °C -14.3 °C 34374.7 hPa Calm     93 % 0 mm 0.00 W/m2 CLR
05:54 -13.8 °C -14.4 °C 34378.1 hPa Calm     92 % 0 mm 0.00 W/m2 CLR
05:59 -13.8 °C -14.4 °C 34384.8 hPa Calm     92 % 0 mm 0.00 W/m2 CLR
06:04 -13.8 °C -14.3 °C 34384.8 hPa Calm     93 % 0 mm 0.00 W/m2 CLR
06:09 -13.8 °C -14.3 °C 34384.8 hPa Calm     93 % 0 mm 0.00 W/m2 CLR
06:14 -13.8 °C -14.4 °C 34384.8 hPa Calm     92 % 0 mm 0.00 W/m2 CLR
06:19 -13.4 °C -14.1 °C 34384.8 hPa Calm     92 % 0 mm 0.00 W/m2 CLR
06:24 -13.4 °C -14.1 °C 34388.2 hPa Calm     92 % 0 mm 0.00 W/m2 CLR
06:29 -13.4 °C -14.1 °C 34388.2 hPa Calm     92 % 0 mm 0.00 W/m2 CLR
06:34 -13.4 °C -14.1 °C 34388.2 hPa Calm     93 % 0 mm 0.00 W/m2 CLR
06:39 -13.8 °C -14.3 °C 34391.6 hPa Calm     93 % 0 mm 0.00 W/m2 CLR
06:44 -13.8 °C -14.4 °C 34395 hPa Calm     92 % 0 mm 0.00 W/m2 CLR
06:49 -13.8 °C -14.4 °C 34395 hPa Calm     92 % 0 mm 0.00 W/m2 CLR
06:54 -13.8 °C -14.4 °C 34395 hPa Calm     92 % 0 mm 0.00 W/m2 CLR
06:59 -13.8 °C -14.4 °C 34398.4 hPa Calm     92 % 0 mm 0.00 W/m2 CLR
07:04 -14.1 °C -14.8 °C 34398.4 hPa Calm     92 % 0 mm 0.00 W/m2 CLR
07:09 -14.1 °C -14.7 °C 34398.4 hPa Calm     93 % 0 mm 0.00 W/m2 CLR
07:14 -14.1 °C -14.7 °C 34398.4 hPa Calm     93 % 0 mm 0.00 W/m2 CLR
07:19 -13.8 °C -14.3 °C 34401.8 hPa Calm     93 % 0 mm 0.00 W/m2 CLR
07:24 -14.1 °C -14.8 °C 34401.8 hPa Calm     92 % 0 mm 0.00 W/m2 CLR
07:29 -14.1 °C -14.8 °C 34401.8 hPa Calm     92 % 0 mm 0.00 W/m2 CLR
07:34 -14.1 °C -14.8 °C 34408.5 hPa Calm     92 % 0 mm 0.00 W/m2 CLR
07:39 -14.1 °C -14.7 °C 34411.9 hPa Calm     93 % 0 mm 0.00 W/m2 CLR
07:44 -14.1 °C -14.7 °C 34415.3 hPa Calm     93 % 0 mm 0.00 W/m2 CLR
07:49 -14.1 °C -14.7 °C 34415.3 hPa Calm     93 % 7.62 mm 0.00 W/m2 RA
07:54 -14.4 °C -15.1 °C 34418.7 hPa Calm     92 % 7.62 mm 0.00 W/m2
07:59 -14.4 °C -15.1 °C 34418.7 hPa Calm     92 % 7.62 mm 0.00 W/m2 CLR
08:04 -14.4 °C -14.9 °C 34422.1 hPa Calm     93 % 7.62 mm 0.00 W/m2 OVC
08:09 -14.4 °C -14.9 °C 34425.5 hPa Calm     93 % 7.62 mm 0.00 W/m2 OVC
08:14 -14.4 °C -14.9 °C 34428.8 hPa Calm     93 % 7.62 mm 0.00 W/m2 OVC
08:19 -14.4 °C -14.9 °C 34432.2 hPa Calm     93 % 7.62 mm 5.00 W/m2 OVC
08:24 -14.4 °C -14.9 °C 34435.6 hPa Calm     93 % 7.62 mm 7.00 W/m2 BKN
08:29 -14.4 °C -14.9 °C 34439 hPa Calm     93 % 7.62 mm 11.00 W/m2 BKN
08:34 -14.4 °C -14.9 °C 34442.4 hPa Calm     93 % 7.62 mm 11.00 W/m2 BKN
08:39 -14.1 °C -14.7 °C 34445.8 hPa Calm     93 % 7.62 mm 12.00 W/m2 BKN
08:44 -14.1 °C -14.7 °C 34452.6 hPa Calm     93 % 7.62 mm 14.00 W/m2 BKN
08:49 -14.1 °C -14.7 °C 34452.6 hPa Calm     93 % 0 mm 16.00 W/m2 BKN
08:54 -14.1 °C -14.7 °C 34455.9 hPa Calm     93 % 0 mm 21.00 W/m2 BKN
08:59 -14.1 °C -14.7 °C 34459.3 hPa Calm     93 % 0 mm 49.00 W/m2 SCT
09:04 -13.8 °C -14.3 °C 34462.7 hPa Calm     93 % 0 mm 65.00 W/m2 SCT
09:09 -13.8 °C -14.3 °C 34462.7 hPa Calm     93 % 0 mm 70.00 W/m2 FEW
09:14 -13.8 °C -14.3 °C 34462.7 hPa Calm     93 % 0 mm 111.00 W/m2 FEW
09:19 -13.8 °C -14.3 °C 34466.1 hPa Calm     93 % 0 mm 127.00 W/m2 CLR
09:24 -13.4 °C -14.1 °C 34466.1 hPa Calm     93 % 0 mm 142.00 W/m2 CLR
09:29 -13.4 °C -14.1 °C 34469.5 hPa Calm     93 % 0 mm 155.00 W/m2 CLR
09:34 -13.2 °C -13.7 °C 34472.9 hPa Calm     93 % 0 mm 130.00 W/m2 CLR
09:39 -12.8 °C -13.4 °C 34472.9 hPa Calm     93 % 0 mm 192.00 W/m2 CLR
09:44 -12.6 °C -13.1 °C 34479.6 hPa Calm     93 % 0 mm 207.00 W/m2 CLR
09:49 -12.6 °C -13.1 °C 34479.6 hPa Calm     93 % 0 mm 223.00 W/m2 CLR
09:54 -12.6 °C -13.2 °C 34483 hPa Calm     92 % 0 mm 232.00 W/m2 CLR
09:59 -12.2 °C -12.9 °C 34483 hPa Calm     92 % 0 mm 251.00 W/m2 CLR
10:04 -11.9 °C -12.7 °C 34483 hPa Calm     91 % 0 mm 265.00 W/m2 CLR
10:09 -11.9 °C -12.7 °C 34483 hPa Calm     91 % 0 mm 279.00 W/m2 CLR
10:14 -11.6 °C -12.4 °C 34486.4 hPa Calm     90 % 0 mm 295.00 W/m2 CLR
10:19 -11.6 °C -12.4 °C 34489.8 hPa Calm     90 % 0 mm 315.00 W/m2 CLR
10:24 -11.6 °C -12.4 °C 34489.8 hPa Calm     90 % 0 mm 336.00 W/m2 CLR
10:29 -11.6 °C -12.7 °C 34486.4 hPa Calm     88 % 0 mm 352.00 W/m2 CLR
10:34 -11.6 °C -12.7 °C 34486.4 hPa Calm     87 % 0 mm 362.00 W/m2 CLR
10:39 -11.6 °C -12.9 °C 34489.8 hPa Calm     85 % 0 mm 380.00 W/m2 CLR
10:44 -11.3 °C -12.7 °C 34493.2 hPa Calm     84 % 0 mm 396.00 W/m2 CLR
10:49 -11 °C -12.4 °C 34489.8 hPa Calm     84 % 0 mm 406.00 W/m2 CLR
10:54 -10.7 °C -12.1 °C 34489.8 hPa Calm     84 % 0 mm 413.00 W/m2 CLR
10:59 -10.7 °C -12.3 °C 34489.8 hPa Calm     82 % 0 mm 425.00 W/m2 CLR
11:04 -10.7 °C -12.4 °C 34493.2 hPa Calm     81 % 0 mm 438.00 W/m2 CLR
11:09 -10.4 °C -12.1 °C 34493.2 hPa Calm     81 % 0 mm 454.00 W/m2 CLR
11:14 -10.4 °C -12.3 °C 34496.6 hPa Calm     80 % 0 mm 459.00 W/m2 CLR
11:19 -10.1 °C -11.9 °C 34493.2 hPa Calm     80 % 0 mm 471.00 W/m2 CLR
11:24 -9.8 °C -11.8 °C 34496.6 hPa Calm     78 % 0 mm 483.00 W/m2 CLR
11:29 -9.8 °C -12 °C 34493.2 hPa Calm     77 % 0 mm 496.00 W/m2 CLR
11:34 -9.4 °C -11.7 °C 34489.8 hPa Calm     77 % 0 mm 510.00 W/m2 CLR
11:39 -9.4 °C -11.8 °C 34486.4 hPa Calm     76 % 0 mm 519.00 W/m2 CLR
11:44 -9.4 °C -11.7 °C 34486.4 hPa Calm     77 % 0 mm 527.00 W/m2 CLR
11:49 -9.1 °C -11.6 °C 34486.4 hPa Calm     75 % 0 mm 536.00 W/m2 CLR
11:54 -8.8 °C -11.2 °C 34489.8 hPa Calm     76 % 0 mm 552.00 W/m2 CLR
11:59 -8.8 °C -11.1 °C 34493.2 hPa Calm     77 % 0 mm 577.00 W/m2 CLR
12:04 -8.8 °C -11.3 °C 34493.2 hPa Calm     75 % 0 mm 334.00 W/m2 CLR
12:09 -8.8 °C -11.3 °C 34493.2 hPa Calm     75 % 0 mm 318.00 W/m2 CLR
12:14 -8.5 °C -11 °C 34493.2 hPa Calm     75 % 0 mm 345.00 W/m2 CLR
12:19 -8.5 °C -11.1 °C 34493.2 hPa Calm     74 % 0 mm 251.00 W/m2 CLR
12:24 -8.5 °C -11 °C 34493.2 hPa Calm     75 % 0 mm 246.00 W/m2 CLR
12:29 -8.8 °C -11.3 °C 34496.6 hPa Calm     75 % 0 mm 334.00 W/m2 CLR
12:34 -8.5 °C -11 °C 34496.6 hPa Calm     75 % 0 mm 482.00 W/m2 CLR
12:39 -8.2 °C -10.7 °C 34496.6 hPa Calm     75 % 0 mm 411.00 W/m2 CLR
12:44 -8.2 °C -10.4 °C 34493.2 hPa Calm     77 % 0 mm 758.00 W/m2 CLR
12:49 -8.2 °C -10.7 °C 34496.6 hPa Calm     75 % 0 mm 227.00 W/m2 CLR
12:54 -8.2 °C -10.8 °C 34496.6 hPa Calm     74 % 0 mm 206.00 W/m2 CLR
12:59 -8.2 °C -10.7 °C 34500 hPa Calm     75 % 0 mm 673.00 W/m2 CLR
13:04 -8.2 °C -10.9 °C 34496.6 hPa Calm     73 % 0 mm 761.00 W/m2 CLR
13:09 -7.9 °C -10.7 °C 34496.6 hPa Calm     72 % 0 mm 751.00 W/m2 CLR
13:14 -7.6 °C -10.6 °C 34493.2 hPa Calm     71 % 0 mm 751.00 W/m2 CLR
13:19 -7.3 °C -10.3 °C 34493.2 hPa Calm     71 % 0 mm 765.00 W/m2 CLR
13:24 -7.6 °C -10.8 °C 34493.2 hPa Calm     69 % 0 mm 501.00 W/m2 CLR
13:29 -7.9 °C -11 °C 34489.8 hPa Calm     70 % 0 mm 499.00 W/m2 CLR
13:34 -7.9 °C -11 °C 34489.8 hPa Calm     70 % 0 mm 570.00 W/m2 CLR
13:39 -7.9 °C -11.1 °C 34486.4 hPa Calm     69 % 0 mm 348.00 W/m2 CLR
13:44 -7.6 °C -10.8 °C 34486.4 hPa Calm     69 % 0 mm 267.00 W/m2 CLR
13:49 -7.6 °C -10.9 °C 34479.6 hPa Calm     68 % 0 mm 209.00 W/m2 CLR
13:54 -7.9 °C -11 °C 34479.6 hPa Calm     70 % 0 mm 223.00 W/m2 CLR
13:59 -7.9 °C -11 °C 34479.6 hPa Calm     70 % 0 mm 274.00 W/m2 CLR
14:04 -7.9 °C -10.7 °C 34476.3 hPa Calm     72 % 0 mm 274.00 W/m2 CLR
14:09 -7.9 °C -10.7 °C 34476.3 hPa Calm     72 % 0 mm 281.00 W/m2 CLR
14:14 -7.9 °C -10.9 °C 34476.3 hPa Calm     71 % 0 mm 285.00 W/m2 CLR
14:19 -7.9 °C -10.9 °C 34476.3 hPa Calm     71 % 0 mm 304.00 W/m2 CLR
14:24 -7.9 °C -10.9 °C 34476.3 hPa Calm     71 % 0 mm 396.00 W/m2 CLR
14:29 -7.6 °C -10.6 °C 34476.3 hPa Calm     71 % 0 mm 874.00 W/m2 CLR
14:34 -7.3 °C -10.3 °C 34476.3 hPa Calm     71 % 0 mm 468.00 W/m2 CLR
14:39 -7.3 °C -10.5 °C 34476.3 hPa Calm     69 % 0 mm 438.00 W/m2 CLR
14:44 -7.3 °C -10.5 °C 34476.3 hPa Calm     69 % 0 mm 394.00 W/m2 CLR
14:49 -7.6 °C -10.9 °C 34476.3 hPa Calm     68 % 0 mm 323.00 W/m2 CLR
14:54 -7.6 °C -10.9 °C 34476.3 hPa Calm     68 % 0 mm 360.00 W/m2 CLR
14:59 -7.6 °C -10.8 °C 34476.3 hPa Calm     69 % 0 mm 327.00 W/m2 CLR
15:04 -7.6 °C -10.8 °C 34476.3 hPa Calm     69 % 0 mm 336.00 W/m2 CLR
15:09 -7.6 °C -10.9 °C 34472.9 hPa Calm     68 % 0 mm 320.00 W/m2 CLR
15:14 -7.3 °C -10.9 °C 34469.5 hPa Calm     66 % 0 mm 297.00 W/m2 CLR
Lo Temps de Massalio
Compliments of Weather Underground - 768 kb